Content
SEND FEEDBACK

Daily
Averages
Monthly
Summary
United States of America

ASATDAS, GUAM


Home > North America > United States > Guam
Elevation: 612 feet     Latitude: 13 35N     Longitude: 144 56E

WEATHER
 
SELECT A DAY
Number of Records: 214,141;   Date Range: 1/1/95 - 10/30/14
 
SHARE

PRINT THIS DATA

[ ← Previous Day ]
WEATHER ALMANAC - APRIL 5, 2013
[ Next Day → ]
[ °C ]   °F
Weather ElementAverageHighLow
Temperature83.3 °F88 °F (11:54 am)78.1 °F (6:54 am)
Dewpoint70.6 °F72 °F (4:54 pm)69.1 °F (4:54 am)
Humidity65.8 %76 % (6:54 am)53 % (12:54 pm)
Barometer29.85 in29.90 in (9:54 am)29.79 in (3:54 pm)
Wind Speed9.3 mph17.3 mph (2:54 pm)
Wind Gust24.2 mph (2:54 pm)
Weather ElementAverage
Visibility10 mi
Wind DirectionENE (76.2 °)

Weather ElementTotal
Precipitation---
Cooling Degree Days18.1 (Base 65)
Growing Degree Days33.1 (Base 50)
Averaged from 26 records on April 5, 2013
WEATHER CONDITIONS BREAKOUT
WIND DIRECTION BREAKOUT
WEATHER BY HOUR - APRIL 5, 2013
[ °C ]   °F
Local TimeTemperatureDewpointHumidityBarometerVisibilityWind DirectionWind SpeedGust SpeedPrecipitationEventsConditions
1:30 AM80.6 °F71.6 °F74 %29.88 in10.0 miEast (80°)3.5 mphMostly Cloudy
1:38 AM80.6 °F71.6 °F74 %29.88 in10.0 miEast (80°)5.8 mphMostly Cloudy
1:54 AM81.0 °F71.1 °F72 %29.85 in10.0 miEast (80°)4.6 mphMostly Cloudy
2:54 AM81.0 °F70.0 °F69 %29.84 in10.0 miENE (70°)5.8 mphClear
3:54 AM80.1 °F70.0 °F71 %29.83 in10.0 miEast (90°)4.6 mphScattered Clouds
4:54 AM80.1 °F69.1 °F69 %29.84 in10.0 miEast (90°)4.6 mphClear
5:54 AM79.0 °F69.1 °F72 %29.84 in10.0 miEast (80°)4.6 mphClear
6:54 AM78.1 °F70.0 °F76 %29.86 in10.0 miNNE (20°)3.5 mphClear
7:54 AM82.9 °F70.0 °F65 %29.88 in10.0 miENE (60°)8.1 mphClear
8:54 AM84.0 °F70.0 °F63 %29.89 in10.0 miEast (80°)9.2 mphPartly Cloudy
9:54 AM86.0 °F70.0 °F59 %29.90 in10.0 miEast (80°)12.7 mphPartly Cloudy
10:54 AM87.1 °F69.1 °F55 %29.88 in10.0 miENE (70°)13.8 mphPartly Cloudy
11:54 AM88.0 °F70.0 °F55 %29.87 in10.0 miEast (80°)13.8 mphPartly Cloudy
12:54 PM88.0 °F69.1 °F53 %29.84 in10.0 miEast (90°)13.8 mphPartly Cloudy
1:54 PM88.0 °F71.1 °F57 %29.82 in10.0 miEast (80°)15.0 mphScattered Clouds
2:54 PM87.1 °F71.1 °F59 %29.80 in10.0 miENE (70°)17.3 mph24.2 mphScattered Clouds
3:54 PM87.1 °F71.1 °F59 %29.79 in10.0 miENE (70°)17.3 mphScattered Clouds
4:54 PM84.9 °F72.0 °F65 %29.79 in10.0 miEast (80°)17.3 mphMostly Cloudy
5:04 PM84.2 °F71.6 °F66 %29.82 in10.0 miEast (90°)13.8 mphScattered Clouds
5:54 PM84.0 °F71.1 °F65 %29.81 in10.0 miEast (90°)11.5 mphPartly Cloudy
6:54 PM82.0 °F70.0 °F67 %29.82 in10.0 miEast (80°)6.9 mphPartly Cloudy
7:54 PM82.9 °F71.1 °F67 %29.85 in10.0 miEast (80°)5.8 mphPartly Cloudy
8:54 PM82.0 °F71.1 °F69 %29.86 in10.0 miENE (70°)6.9 mphPartly Cloudy
9:54 PM82.0 °F72.0 °F71 %29.88 in10.0 miEast (80°)4.6 mphPartly Cloudy
10:54 PM82.0 °F72.0 °F71 %29.88 in10.0 miENE (70°)6.9 mphScattered Clouds
11:54 PM82.0 °F71.1 °F69 %29.87 in10.0 miENE (70°)9.2 mphPartly Cloudy
Hourly data recorded from PGUM, located miles away from Asatdas, Guam







STORIES FROM OUR PARTNERS